OPS-SAT
1 44878U 19092F 21126.48814389 .00001222 00000-0 66223-4 0 9999
2 44878 97.4750 310.5980 0012683 321.2923 38.7400 15.16432302 76476
TO-108
1 44881U 19093C 21126.45586693 .00000085 00000-0 17649-4 0 9999
2 44881 97.9247 205.7385 0016523 71.3582 288.9431 14.81445114 74513
FloripaSat 1
1 44885U 19093G 21126.50054645 .00000368 00000-0 52697-4 0 9992
2 44885 97.9259 206.3036 0016211 79.2005 281.1032 14.82271350 74557
RS-44
1 44909U 19096E 21126.48675215 .00000034 00000-0 89295-4 0 9995
2 44909 82.5180 140.6995 0217173 190.9311 168.7032 12.79709810 63494
SwampSat-2
1 45115U 19071E 21126.54626251 .00028293 00000-0 49273-3 0 9999
2 45115 51.6360 224.1978 0004403 151.4805 208.6426 15.50519173 70931
HO-107
1 45119U 19071J 21126.57333959 .00002275 00000-0 75761-4 0 9990
2 45119 51.6417 239.9197 0011613 137.3433 222.8454 15.35552331 70739
Phoenix
1 45258U 98067RB 21126.56345520 .00005667 00000-0 87129-4 0 9991
2 45258 51.6391 178.4086 0005842 89.8772 270.2888 15.55885356 68689
AztechSat-1
1 45261U 98067RE 21126.57084131 .00016241 00000-0 17962-3 0 9991
2 45261 51.6361 170.2025 0005578 94.4170 265.7461 15.63170805 68819
QARMAN
1 45263U 98067RG 21126.39654425 .00012030 00000-0 15146-3 0 9996
2 45263 51.6382 175.0522 0005816 95.2021 264.9636 15.60082229 68777
Quetzal 1
1 45598U 98067RL 21126.39091825 .00009480 00000-0 12884-3 0 9997
2 45598 51.6396 178.7819 0000308 223.9823 136.1145 15.58343543 57996
BY70-2
1 45857U 20042B 21126.50647092 .00001288 00000-0 19032-3 0 9999
2 45857 97.9841 202.6913 0010503 359.1742 0.9446 14.76916953 45353
UPMSat 2
1 46276U 20061E 21126.84686969 .00000540 00000-0 31137-4 0 9990
2 46276 97.4337 201.4586 0002760 117.5547 242.5967 15.16412604 37231
AmicalSat
1 46287U 20061R 21126.44059148 .00000604 00000-0 40570-4 0 9993
2 46287 97.4891 200.6255 0001621 207.9197 152.1946 15.10402403 37000
SALSAT
1 46495U 20068K 21126.59756985 -.00000062 00000-0 10249-7 0 9992
2 46495 97.6908 64.3491 0015573 208.7728 151.2614 15.03426803 33043
BY70-3
1 46839U 20079N 21126.88721743 .00003021 00000-0 95830-4 0 9995
2 46839 97.2418 201.5725 0007137 10.5903 102.0129 15.33428757 27831
SPOC
1 46921U 98067RR 21126.65933076 .00004853 00000-0 81862-4 0 9992
2 46921 51.6416 184.3328 0001935 309.3657 50.7162 15.53649339 28354
Bobcat-1
1 46922U 98067RS 21126.45780143 .00007321 00000-0 11402-3 0 9991
2 46922 51.6424 184.5004 0002040 323.7562 36.3290 15.55018323 28290
Neutron-1
1 46923U 98067RT 21126.41422720 .00005007 00000-0 84607-4 0 9999
2 46923 51.6414 185.6935 0002090 322.2906 37.7937 15.53523732 28359
CAPE 3
1 47309U 21002A 21126.63054574 .00001839 00000-0 94185-4 0 9996
2 47309 60.6838 88.2891 0036096 24.6172 335.6627 15.20627966 16528
AO-109
1 47311U 21002C 21126.36845127 .00001709 00000-0 86534-4 0 9996
2 47311 60.6850 88.7203 0030901 25.0392 335.2185 15.21523279 16466
MiTEE 1
1 47314U 21002F 21126.41287637 .00002173 00000-0 10276-3 0 9996
2 47314 60.6857 87.7799 0028827 15.2037 344.9909 15.22890265 16505
ExoCube 2
1 47319U 21002L 21126.26286402 .00001006 00000-0 56506-4 0 9994
2 47319 60.6833 89.3331 0031547 24.2145 336.0415 15.21152510 16414
UVSQ-SAT
1 47438U 21006AB 21126.38802206 .00000846 00000-0 51483-4 0 9999
2 47438 97.4905 188.3594 0011349 239.2994 120.7119 15.13048371 15691
YUSAT 1
1 47439U 21006AC 21126.38988453 .00000941 00000-0 56912-4 0 9997
2 47439 97.4907 188.3590 0011243 239.4128 120.5995 15.13026624 15691
SOMP 2b
1 47445U 21006AJ 21126.13346492 .00000812 00000-0 49777-4 0 9996
2 47445 97.4878 188.0466 0010917 244.4639 115.5464 15.12894371 15656
IDEASSat
1 47458U 21006AX 21126.73787117 .00000679 00000-0 42408-4 0 9994
2 47458 97.4969 188.7456 0010092 239.2234 120.8004 15.12757490 15743
RSP-01
1 47925U 98067SB 21126.42819202 .00005556 00000-0 10234-3 0 9991
2 47925 51.6423 188.7731 0001508 261.1945 98.8874 15.50807304 8259
TAUSAT-1
1 47926U 98067SC 21126.41649639 .00006073 00000-0 10930-3 0 9994
2 47926 51.6421 188.6955 0002628 256.5886 103.4811 15.51287322 8247
Tsuru
1 47927U 98067SD 21126.68707452 .00004829 00000-0 90237-4 0 9998
2 47927 51.6424 187.5021 0001538 255.7527 104.3291 15.50724778 8292
STARS-EC
1 47928U 98067SE 21126.43121048 .00005362 00000-0 99541-4 0 9993
2 47928 51.6419 188.7902 0006188 323.7853 36.2717 15.50663339 8237
Maya-2
1 47929U 98067SF 21126.42819122 .00004861 00000-0 90701-4 0 9992
2 47929 51.6424 188.7732 0001595 249.4030 110.6788 15.50754130 8216
OPUSAT-II
1 47930U 98067SG 21126.68373604 .00007082 00000-0 12736-3 0 9991
2 47930 51.6422 187.4804 0001423 257.6204 102.4626 15.51014633 8292
GuaraniSat-1
1 47931U 98067SH 21126.36330017 .00004889 00000-0 91140-4 0 9997
2 47931 51.6425 189.0901 0001620 247.3046 112.7772 15.50766714 8245
CubeSX-Sirius-HSE
1 47951U 21022V 21126.84106124 .00000486 00000-0 37741-4 0 9995
2 47951 97.5628 29.8260 0024111 92.3761 268.0208 15.05604202 6792
CubeSX-HSE
1 47952U 21022W 21126.83991097 .00000475 00000-0 37013-4 0 9996
2 47952 97.5628 29.8269 0023966 91.8139 268.5817 15.05642062 6799
KSU-Cubesat
1 47954U 21022Y 21126.30610565 .00000131 00000-0 13267-4 0 9992
2 47954 97.5626 29.3103 0023429 93.9241 266.4665 15.05714257 6437
GRBAlpha
1 47959U 21022AD 21126.57420219 .00000513 00000-0 39612-4 0 9997
2 47959 97.5626 29.5698 0023847 93.1006 267.2951 15.05638920 5571
Orbicraft-Zorkiy
1 47960U 21022AE 21126.83810904 .00000474 00000-0 36878-4 0 9999
2 47960 97.5644 29.8407 0023551 91.9410 268.4510 15.05703187 6305
STECCO
1 47962U 21022AG 21126.87494518 .00001106 00000-0 78390-4 0 9992
2 47962 97.5597 29.9249 0018538 89.2314 271.1052 15.06703365 5615
DIY-1
1 47963U 21022AH 21126.53478833 .00002058 00000-0 14075-3 0 9994
2 47963 97.5619 29.6098 0021567 87.4970 272.8726 15.07050468 5586
MO-110
1 47964U 21022AJ 21126.60187921 .00001652 00000-0 11406-3 0 9992
2 47964 97.5619 29.6741 0021449 87.8781 272.4938 15.06968988 5579
